Weather History for Florala, AL

Change the Weather History Date:

Saturday, December 1, 2012

  Actual Average (KCEW) Record (KCEW)
Temperature  
Mean Temperature 60 °F -  
Max Temperature 75 °F 67 °F 81 °F (1982)
Min Temperature 46 °F 41 °F 21 °F (1976)
Degree Days  
Heating Degree Days 4    
Growing Degree Days 10 (Base 50)    
Moisture  
Dew Point 50 °F    
Average Humidity 72    
Maximum Humidity 93    
Minimum Humidity 41    
Precipitation  
Precipitation 0.00 in - - ()
Sea Level Pressure  
Sea Level Pressure 30.28 in    
Wind  
Wind Speed 2 mph (East)    
Max Wind Speed 8 mph    
Max Gust Speed -    
Visibility 10 miles    
Events      
Averages and records for this station are not official NWS values.
T = Trace of Precipitation, MM = Missing Value Source: NWS Daily Summary

Daily Weather History Graph

Daily Weather History Graph

Search for Another Location

Airport:

Trip Planner

Search our weather history database for the weather conditions in past years. The results will help you decide how hot, cold, wet, or windy it might be!

Date:

Astronomy

Dec. 01, 2012 Rise Set
Actual Time 6:26 AM CST 4:42 PM CST
Civil Twilight 5:59 AM CST 5:09 PM CST
Nautical Twilight 5:29 AM CST 5:38 PM CST
Astronomical Twilight 5:00 AM CST 6:08 PM CST
Moon 7:28 PM CST (12/1) 8:41 AM CST (12/1)
Length of Visible Light 11h 09m
Length of Day
10h 16m
Waning Gibbous, 91% of the Moon is Illuminated
Dec 1
Waning Gibbous
Dec 6
Last Quarter
Dec 13
New
Dec 19
First Quarter
Dec 28
Full

Hourly Weather History & Observations

Time (CST) Temp. Dew Point Humidity Pressure Visibility Wind Dir Wind Speed Gust Speed Precip Events Conditions
12:58 AM 53.1 °F 51.1 °F 93% 30.25 in 10.0 mi Calm Calm - N/A   Clear
1:58 AM 50.0 °F 46.9 °F 89% 30.26 in 10.0 mi Calm Calm - N/A   Clear
2:58 AM 46.9 °F 44.1 °F 90% 30.26 in 10.0 mi Calm Calm - N/A   Mostly Cloudy
3:58 AM 53.1 °F 48.9 °F 86% 30.25 in 10.0 mi East 3.5 mph - N/A   Partly Cloudy
4:58 AM 52.0 °F 48.0 °F 86% 30.27 in 10.0 mi ENE 3.5 mph - N/A   Partly Cloudy
5:58 AM 52.0 °F 48.0 °F 86% 30.28 in 10.0 mi ENE 3.5 mph - N/A   Overcast
6:58 AM 51.1 °F 48.0 °F 89% 30.30 in 10.0 mi Calm Calm - N/A   Clear
7:58 AM 55.0 °F 51.1 °F 86% 30.32 in 10.0 mi East 4.6 mph - N/A   Clear
8:58 AM 60.1 °F 54.0 °F 80% 30.32 in 10.0 mi ESE 5.8 mph - N/A   Clear
9:58 AM 68.0 °F 55.9 °F 65% 30.32 in 10.0 mi Variable 4.6 mph - N/A   Clear
10:58 AM 72.0 °F 55.0 °F 55% 30.30 in 10.0 mi East 6.9 mph - N/A   Clear
11:58 AM 73.0 °F 52.0 °F 48% 30.28 in 10.0 mi South 8.1 mph - N/A   Overcast
12:58 PM 75.0 °F 50.0 °F 41% 30.26 in 10.0 mi NE 5.8 mph - N/A   Scattered Clouds
1:58 PM 73.9 °F 50.0 °F 43% 30.25 in 10.0 mi SE 4.6 mph - N/A   Clear
2:58 PM 73.9 °F 48.9 °F 41% 30.25 in 10.0 mi Calm Calm - N/A   Clear
3:58 PM 71.1 °F 50.0 °F 47% 30.25 in 10.0 mi East 3.5 mph - N/A   Clear
4:58 PM 64.9 °F 51.1 °F 61% 30.26 in 10.0 mi ENE 3.5 mph - N/A   Clear
5:58 PM 62.1 °F 50.0 °F 65% 30.27 in 10.0 mi Calm Calm - N/A   Clear
6:58 PM 61.0 °F 48.9 °F 64% 30.28 in 10.0 mi Calm Calm - N/A   Clear
7:58 PM 52.0 °F 48.0 °F 86% 30.28 in 10.0 mi Calm Calm - N/A   Clear
8:58 PM 52.0 °F 46.9 °F 83% 30.29 in 10.0 mi Calm Calm - N/A   Clear
9:58 PM 52.0 °F 48.0 °F 86% 30.28 in 10.0 mi Calm Calm - N/A   Clear
10:58 PM 52.0 °F 46.9 °F 83% 30.28 in 10.0 mi Calm Calm - N/A   Clear
11:58 PM 53.1 °F 48.0 °F 83% 30.29 in 10.0 mi Calm Calm - N/A   Clear